Wind_Speed
20 20 20 20 19 18 19 19 19 19 18 16 15 14 13 13 12 10 8 6 5 5 5 6 8 9 11 13 14 15 16 17 19 21 21 21 22 22 24 25 26 26 26 26 26 27 28 29 29 28 26 25 23 23 21 20 20 20 19 19 20 22 24 26 27 29 30 30 31 31 29 29 29 29 29 29 30 30 30 30 29 29 29 29 29
18 18 18 18 17 17 18 19 19 18 17 15 15 14 14 13 12 10 8 7 6 6 6 7 9 11 12 13 14 16 17 19 21 22 22 22 23 24 24 25 26 27 27 28 28 29 29 30 29 29 29 28 26 25 23 22 22 22 21 20 20 22 24 26 28 30 31 31 31 31 31 31 31 31 30 30 31 31 31 31 31 30 30 30 30
18 18 18 17 17 17 17 18 18 17 16 16 15 14 14 14 12 10 8 8 7 7 8 9 10 12 12 13 15 16 18 20 21 21 21 22 24 24 24 25 26 27 28 30 30 30 30 31 30 29 28 28 28 25 24 23 24 25 24 23 23 23 24 26 28 29 31 32 32 32 33 33 33 32 31 31 31 32 32 33 32 32 32 31 31
18 17 17 17 16 16 16 17 17 16 16 16 16 15 15 14 11 10 9 8 9 9 9 10 11 11 12 14 15 17 19 20 20 20 22 23 25 26 26 27 28 28 29 30 30 30 30 31 32 30 28 27 27 26 25 24 24 24 24 24 24 25 25 26 28 30 31 33 34 35 35 35 34 33 32 31 31 32 33 33 34 33 32 31 31
17 17 16 16 15 15 16 16 16 16 16 16 16 16 15 13 12 11 10 10 10 10 11 11 11 11 12 14 16 18 19 19 20 21 23 25 27 28 29 30 29 29 28 29 29 30 30 31 32 32 30 28 27 27 25 24 24 24 25 25 26 26 27 28 29 30 32 34 36 37 37 36 35 34 33 32 32 33 33 34 35 35 34 33 33
18 17 16 16 14 14 15 15 15 16 16 16 17 17 15 14 13 12 11 12 12 12 12 11 10 11 13 15 17 19 20 20 21 23 24 26 28 30 32 32 31 30 30 30 29 30 31 32 33 33 31 30 29 27 26 26 26 26 26 27 27 28 29 30 31 31 33 34 36 37 37 37 36 35 35 34 33 34 35 36 36 37 38 38 37
20 19 18 16 15 14 14 14 16 17 17 18 18 17 16 15 14 14 14 14 13 13 12 11 10 12 14 16 18 20 21 22 23 25 26 26 29 32 34 33 32 32 33 32 30 30 31 32 34 33 33 32 31 29 27 28 29 29 29 29 29 30 31 33 33 33 34 35 36 37 37 37 37 36 36 36 35 35 36 37 37 38 40 42 42
22 20 19 19 17 15 15 15 16 18 19 19 18 17 16 15 15 16 16 15 14 13 12 11 12 13 16 18 20 21 22 23 25 26 27 27 29 32 34 34 33 33 33 31 30 30 31 32 33 33 33 33 32 30 29 30 31 32 32 32 32 33 35 36 36 36 37 38 39 40 39 39 39 38 37 37 37 37 39 40 38 37 39 41 44
23 21 20 20 19 18 17 17 17 18 19 18 17 16 16 17 17 17 17 16 15 13 12 12 12 14 17 20 21 23 24 25 26 28 30 30 31 33 33 33 33 33 34 32 30 30 30 31 31 31 32 32 31 31 31 32 33 33 34 35 36 36 37 38 37 38 39 41 44 44 43 41 40 39 38 38 39 41 43 41 38 36 37 41 44
24 21 19 20 21 21 21 20 19 19 18 18 17 18 18 19 19 18 18 17 15 13 13 13 13 15 19 21 23 25 26 27 29 31 33 34 35 33 32 33 33 32 34 33 31 30 29 30 30 31 31 31 31 32 33 34 34 35 36 37 38 38 38 37 37 38 39 40 44 46 44 41 39 40 40 40 42 44 43 40 38 39 41 43 45
25 23 20 20 22 23 24 23 22 21 19 18 19 20 21 21 20 20 20 17 15 14 14 14 15 17 20 22 24 26 28 29 31 34 37 39 38 33 30 32 33 32 33 32 31 30 29 29 30 31 31 32 33 33 35 35 36 37 38 39 40 40 38 37 38 39 38 38 39 41 40 39 38 39 40 41 43 44 42 41 42 44 45 44 44
26 25 24 24 24 25 26 26 24 22 21 20 20 22 23 22 21 21 20 18 16 16 15 15 17 19 21 23 26 27 28 31 34 37 40 41 37 33 33 34 34 33 33 32 31 30 29 29 30 31 33 34 34 34 36 37 37 37 38 39 40 40 37 38 40 40 39 37 34 32 33 34 35 37 38 40 42 43 42 43 45 46 45 44 44
28 27 27 27 27 26 27 28 27 25 23 22 23 24 25 24 23 22 21 20 19 18 17 18 19 21 23 25 27 27 29 32 35 37 41 41 38 36 37 36 34 34 34 33 32 31 31 31 32 33 34 35 35 35 36 36 36 36 37 37 37 37 36 37 39 38 37 35 32 32 34 36 36 38 40 41 42 43 44 45 46 45 44 44 45
31 30 30 29 29 29 29 29 28 27 25 25 25 25 26 25 25 24 23 21 20 19 19 19 20 23 25 27 27 28 31 34 36 36 38 41 43 42 38 35 35 37 36 34 35 34 34 33 34 35 35 36 36 36 35 34 34 34 35 36 36 35 34 34 35 34 33 32 33 36 39 40 40 41 42 42 43 44 46 46 46 45 45 46 46
33 33 32 32 31 31 31 31 30 29 28 27 27 26 26 26 26 26 24 22 21 21 21 21 22 25 27 28 29 30 33 35 36 36 37 39 44 44 41 40 41 40 38 38 39 38 37 36 36 36 36 36 37 37 36 36 35 35 36 36 35 33 32 32 34 34 34 35 36 38 41 43 43 43 44 45 45 46 47 47 46 46 47 48 48
36 36 34 34 33 32 32 32 32 31 31 29 28 27 27 27 27 27 25 23 23 22 21 22 23 26 28 30 31 33 35 36 36 38 39 40 43 45 46 46 45 43 43 43 43 42 41 39 38 38 38 38 39 39 38 38 36 36 35 34 32 31 32 34 36 36 36 37 38 39 42 44 45 45 46 48 48 49 49 48 48 49 49 48 47
37 38 37 36 34 34 34 34 34 34 33 31 30 28 27 27 27 27 27 25 24 23 22 23 25 28 29 32 33 35 36 38 39 41 42 44 46 46 46 45 45 45 45 45 45 44 43 41 41 40 40 39 39 39 39 38 36 35 33 32 31 32 34 37 38 38 37 38 39 41 43 44 45 46 48 49 50 51 50 49 48 49 48 46 45
36 38 40 39 37 35 35 35 36 35 34 33 31 29 28 28 28 28 28 26 25 25 24 25 27 29 31 33 34 36 38 40 42 44 46 47 48 46 43 43 43 44 44 45 46 45 44 43 42 40 40 40 40 40 39 38 36 34 32 31 32 34 37 40 40 39 38 39 40 42 44 45 47 48 49 50 50 50 49 48 46 46 45 45 45
37 37 39 41 41 39 37 36 37 37 36 35 33 30 29 29 30 30 29 28 27 27 26 26 28 29 31 32 34 37 39 41 45 46 44 43 42 40 39 40 42 43 44 45 45 45 45 44 41 40 40 40 40 40 40 38 36 35 34 34 35 38 41 42 40 39 39 40 42 43 45 47 49 50 50 50 49 48 47 46 46 46 46 45 45
42 42 42 42 42 41 39 38 38 38 37 37 35 32 30 31 32 31 30 29 29 27 27 27 28 29 30 32 35 37 39 42 43 41 37 36 36 37 38 40 42 44 45 45 46 47 46 44 42 41 41 41 40 40 39 39 38 38 38 38 40 42 42 41 39 39 41 42 43 45 47 49 50 50 49 48 48 47 47 47 47 47 46 45 43
48 48 47 45 43 41 40 40 39 38 38 39 37 34 33 34 33 32 31 31 30 29 29 29 29 29 31 32 35 37 38 39 37 35 35 36 37 38 40 42 44 45 47 47 48 48 46 43 42 42 41 41 40 39 39 39 39 40 41 42 44 45 43 40 40 42 43 45 46 48 49 50 50 49 48 47 47 47 47 47 47 46 44 41 39
51 52 51 48 46 44 41 41 41 40 39 40 39 37 37 37 35 34 34 33 32 32 31 30 29 30 31 32 34 36 37 37 36 35 37 39 40 40 42 44 45 47 48 49 49 47 45 43 42 42 42 41 40 40 39 38 39 42 43 44 46 46 43 41 42 44 45 46 47 48 50 50 49 48 47 48 48 48 48 46 44 41 39 37 36
53 53 53 51 48 46 44 42 42 41 40 40 41 42 41 39 38 38 37 35 35 35 33 31 30 31 32 33 35 36 37 37 36 37 39 41 41 42 43 45 47 49 50 50 48 46 43 42 42 42 41 41 40 39 39 39 40 42 43 45 46 46 43 42 43 44 45 46 47 48 48 48 48 47 48 49 48 46 44 42 40 38 37 36 36
56 55 55 52 48 46 45 44 44 43 42 42 44 45 44 43 41 40 38 38 39 37 34 32 32 33 33 34 35 36 37 37 37 39 42 43 43 44 45 46 49 51 51 49 47 44 42 42 42 42 41 40 39 38 38 39 41 43 44 45 46 44 42 42 43 43 44 45 45 45 46 47 47 48 48 46 44 41 39 38 38 38 38 39 39
60 59 58 56 53 50 49 48 47 46 45 45 46 48 48 46 44 41 40 41 41 37 33 34 35 34 33 34 35 36 36 37 39 41 44 45 45 46 46 47 50 51 50 47 44 43 43 42 42 42 41 40 39 38 38 39 41 43 45 45 44 42 42 42 43 43 43 43 44 45 46 46 46 45 43 41 39 37 37 38 39 40 40 40 40
66 66 66 67 65 60 56 54 51 49 50 49 49 51 51 48 44 43 43 44 42 37 35 36 37 34 33 33 35 36 36 38 40 42 45 46 47 46 47 48 50 49 46 44 43 42 42 42 42 41 40 39 39 38 38 39 40 43 44 43 42 41 41 41 41 41 41 42 43 44 44 44 42 41 39 38 38 38 39 40 40 41 40 40 39
73 72 73 75 75 69 62 58 55 53 53 52 52 53 51 47 45 46 46 45 42 38 38 39 37 34 34 34 35 36 37 38 41 43 44 45 45 45 46 47 46 44 43 42 42 41 41 42 41 41 40 39 39 39 39 39 40 42 42 41 41 40 39 38 39 40 41 42 42 42 42 40 39 38 39 39 40 41 41 41 40 40 40 39 38
80 79 78 79 80 75 66 62 58 56 55 54 54 52 50 47 46 47 46 42 39 38 39 39 37 35 35 35 35 36 38 40 42 43 44 45 45 45 45 44 43 42 41 41 40 40 41 41 41 40 40 39 39 40 40 40 41 41 41 40 38 37 37 38 39 40 41 41 40 40 39 39 39 39 40 40 40 41 40 40 39 39 38 37 36
76 77 78 80 79 72 64 61 60 57 55 55 54 51 49 47 47 47 44 40 38 39 41 41 37 36 37 38 38 39 40 42 43 45 45 46 46 45 44 42 41 40 40 40 40 40 40 41 41 41 40 40 40 40 41 41 41 40 39 38 37 37 38 39 39 40 39 38 38 38 38 38 39 39 39 39 39 39 39 39 38 37 37 35 34
71 71 71 70 66 62 58 57 58 56 54 55 54 52 49 48 47 45 43 40 39 41 41 40 38 39 40 40 40 41 43 44 46 47 47 47 46 44 43 41 40 40 40 39 40 40 40 41 41 40 40 40 40 40 41 40 40 39 38 37 37 38 38 37 36 36 36 36 36 36 36 36 37 37 37 37 37 37 37 36 35 34 33 32 31
69 68 65 62 59 59 56 53 54 54 53 54 54 52 50 48 45 43 41 40 40 41 40 39 40 41 42 42 43 43 45 46 47 47 46 45 44 43 41 39 39 39 39 39 40 40 40 40 39 38 39 39 40 40 39 39 38 37 37 36 37 36 35 33 33 33 34 34 33 33 34 34 35 36 36 36 35 35 34 33 31 30 29 28 28
62 61 58 53 52 53 50 49 51 53 53 54 52 50 47 45 43 42 41 41 41 41 41 41 42 43 43 43 44 44 46 47 47 46 45 44 42 41 39 38 38 39 39 39 40 40 39 38 37 37 38 39 39 38 38 37 37 36 35 35 34 32 31 31 31 32 31 31 30 31 32 33 34 35 35 35 34 33 32 31 30 29 28 27 26
57 53 45 40 41 44 46 49 52 52 51 51 49 46 44 44 43 42 42 42 43 43 43 43 44 44 44 44 45 46 47 48 47 46 46 43 40 38 37 37 38 38 39 39 38 38 37 36 36 37 38 38 37 37 37 36 35 34 33 31 30 28 28 29 29 29 28 28 29 30 31 32 32 33 33 33 32 31 30 29 29 28 27 26 26
47 35 32 36 41 45 48 49 49 49 48 48 46 45 45 44 43 44 44 45 46 46 45 44 45 45 45 45 46 48 49 48 46 46 44 40 37 36 36 37 38 38 38 37 37 36 36 35 36 36 36 37 37 37 36 35 33 32 30 28 27 27 27 27 26 26 26 27 27 28 29 29 30 30 30 30 30 29 28 28 27 27 27 26 26
38 39 41 40 42 44 45 44 44 45 47 47 46 46 46 46 47 48 47 46 46 46 46 45 45 45 46 47 49 51 51 47 44 43 40 37 36 36 36 37 37 36 36 36 35 35 35 34 34 35 36 37 37 35 34 32 31 29 27 26 25 26 26 24 23 24 24 24 25 26 26 27 27 28 28 29 29 28 28 28 28 27 27 27 27
37 37 39 40 40 40 40 39 39 41 44 45 45 46 47 49 49 49 47 46 46 46 47 46 45 46 48 51 52 52 48 43 40 38 36 35 35 36 36 36 36 35 34 34 34 33 33 34 34 36 36 36 35 33 32 30 29 27 26 25 25 25 23 21 21 22 22 22 23 24 25 26 27 27 28 28 28 28 28 28 28 28 28 27 27
27 28 32 36 38 39 38 37 38 40 42 42 44 45 46 47 48 47 46 46 47 48 47 46 45 47 49 49 50 48 44 38 36 35 35 34 35 35 35 35 34 33 33 32 32 32 33 34 35 35 35 34 33 32 30 29 28 26 26 25 24 23 20 19 19 20 20 21 23 24 26 26 27 27 28 29 29 30 30 29 29 29 28 28 28
25 28 31 33 35 36 36 37 40 42 42 42 43 45 45 45 45 46 46 47 49 50 49 46 45 46 45 44 44 42 39 36 34 34 34 34 34 34 34 33 33 32 31 31 31 32 33 33 34 34 32 31 31 31 30 28 27 26 25 24 22 20 18 17 18 19 20 22 23 25 26 27 27 28 28 29 30 31 31 31 30 29 29 29 28
25 29 30 32 34 36 37 38 40 42 42 43 44 45 45 45 46 46 47 49 51 51 48 46 45 43 41 40 39 37 35 34 33 33 33 33 33 33 33 32 32 31 30 30 30 31 32 33 33 32 30 30 30 30 29 28 27 26 25 22 19 17 16 17 18 19 20 22 24 25 26 27 27 28 29 29 30 31 32 32 31 29 28 28 28
26 28 29 31 34 36 37 39 41 42 43 43 44 46 47 49 49 49 48 50 51 50 47 45 44 41 38 36 35 33 33 33 32 32 33 33 33 32 32 31 30 29 29 29 30 31 32 33 32 31 29 29 29 29 28 27 26 25 24 20 17 16 16 17 18 19 21 22 24 25 26 27 28 28 29 29 31 32 32 32 31 30 28 27 27
27 28 29 31 33 35 37 39 41 42 43 45 47 49 50 50 50 49 49 49 49 48 46 43 41 38 35 33 32 32 32 32 32 32 33 32 32 31 30 29 29 28 28 29 30 32 33 33 32 29 28 27 28 29 27 26 26 25 22 19 16 15 16 18 19 20 21 22 24 25 26 27 28 29 29 30 30 31 32 32 32 30 29 28 27
30 32 33 34 35 37 39 40 42 44 46 48 50 51 50 48 47 48 49 50 50 49 47 42 37 33 31 31 31 31 32 32 32 33 32 32 31 30 29 28 28 27 28 29 31 33 34 33 30 27 25 26 28 29 27 26 25 23 20 17 15 15 16 18 19 21 22 23 24 26 26 27 28 29 30 30 30 31 32 33 32 30 29 28 26
34 37 39 40 41 42 43 45 45 46 47 49 50 50 49 48 48 49 51 53 52 50 45 39 33 30 30 30 31 31 31 32 32 32 31 31 30 29 28 27 27 27 28 30 32 33 33 32 29 26 25 26 28 28 27 26 24 22 18 16 15 16 17 18 20 21 23 24 25 26 27 28 29 29 30 30 30 30 31 32 32 30 28 27 25
37 39 40 42 42 43 44 46 47 46 47 48 49 48 47 48 50 51 53 53 50 44 37 31 29 28 29 30 31 31 31 32 31 31 31 30 29 28 27 27 27 28 29 30 32 33 32 30 28 26 25 26 27 26 25 24 22 20 17 16 16 17 18 19 21 22 23 25 25 26 27 28 28 29 30 30 30 30 30 31 31 29 27 26 24
38 39 40 40 40 39 40 41 41 40 40 41 43 44 44 45 46 46 45 43 39 33 28 26 26 28 29 30 30 30 31 31 31 30 30 29 27 27 27 27 27 28 29 30 32 32 31 29 27 26 26 26 25 23 22 21 20 18 16 16 17 18 19 20 21 22 23 24 25 26 27 27 28 28 29 29 29 29 28 29 30 29 27 25 24
38 39 41 42 43 43 42 41 40 39 39 39 38 38 37 38 37 35 32 30 28 26 25 25 26 28 29 29 29 30 30 31 30 30 29 27 26 26 26 27 27 28 29 30 31 31 29 28 26 25 25 23 22 21 19 19 18 18 16 16 17 19 19 20 21 22 23 24 25 26 26 27 27 27 28 28 28 28 27 28 28 28 26 25 23
33 35 36 38 40 42 44 43 42 41 38 34 30 28 29 29 28 27 25 25 25 26 26 26 27 28 28 28 29 30 30 30 29 28 27 26 26 26 26 27 27 28 29 30 30 29 28 26 25 24 22 21 20 19 18 18 17 17 16 17 18 19 19 20 20 21 22 23 24 25 25 26 26 26 27 27 27 27 27 26 27 27 26 25 23
33 33 34 35 36 37 38 38 36 34 30 27 24 23 22 22 22 21 22 24 26 26 27 28 28 28 28 29 30 30 30 29 28 27 26 26 26 26 26 26 26 27 28 28 28 27 26 24 23 22 20 19 19 19 18 18 17 17 17 17 18 18 19 20 20 21 22 23 23 23 24 24 24 25 26 26 27 27 26 26 26 26 26 25 23
34 34 34 35 35 35 35 33 32 32 32 31 28 24 22 24 25 25 25 26 28 29 29 30 29 29 29 30 30 29 29 28 27 27 26 26 26 26 26 26 27 27 27 27 27 26 25 23 22 21 20 18 18 18 19 18 17 17 17 17 18 18 19 19 20 20 21 21 22 22 22 22 23 23 24 25 26 26 26 26 25 25 25 24 23
33 32 31 31 31 31 31 30 29 30 33 33 31 28 29 31 32 32 30 30 30 30 30 30 30 29 30 30 29 29 28 28 27 27 27 27 27 27 27 27 27 27 27 26 26 25 24 22 21 20 19 19 18 19 19 19 19 18 18 18 18 19 19 19 19 19 19 20 20 20 21 21 22 22 23 24 25 25 26 26 25 24 24 24 23
29 28 27 27 27 27 27 27 27 28 29 29 30 30 32 33 33 34 34 33 32 31 31 30 30 30 29 29 28 28 28 28 28 28 28 28 28 27 27 26 26 26 26 25 25 24 23 22 21 20 20 20 20 20 21 20 20 20 19 19 19 19 19 18 18 18 19 19 20 20 21 21 22 22 23 23 24 25 26 26 25 25 24 24 23
Wind_Direction
234 233 232 233 233 232 232 233 233 233 231 226 223 222 219 216 217 219 221 228 238 249 261 271 280 288 293 299 306 313 320 326 330 333 340 348 351 349 346 344 342 338 338 339 339 338 337 336 334 326 317 311 310 314 317 318 317 315 310 303 296 290 287 285 284 284 285 286 287 288 289 291 291 288 284 283 282 283 282 281 280 280 281 282 284
230 228 227 227 227 226 227 229 229 228 225 220 216 215 214 212 212 218 226 233 237 245 256 265 275 283 291 301 310 317 324 331 336 341 345 348 350 350 348 344 342 340 339 338 336 334 333 333 332 329 322 315 312 312 315 317 317 315 312 307 300 294 289 286 285 285 286 288 289 289 289 290 291 288 285 283 283 283 282 282 282 282 281 282 285
230 227 226 226 225 224 225 227 227 224 221 217 213 211 211 209 210 218 229 236 237 243 254 264 275 285 295 306 313 320 328 335 341 344 345 345 346 347 346 343 340 339 338 335 332 329 327 327 328 327 322 316 312 312 314 316 317 316 314 311 306 299 293 288 285 284 285 286 287 288 289 289 289 287 285 284 284 284 284 285 285 284 282 282 285
233 230 228 227 227 226 225 226 225 222 219 215 211 209 208 209 213 221 229 231 233 243 255 265 277 288 299 308 315 322 329 337 341 340 340 340 340 341 342 341 338 336 333 330 326 323 322 322 324 325 322 317 313 312 313 315 316 314 311 309 308 305 300 295 290 286 285 285 286 288 288 287 286 284 283 283 284 285 285 286 284 281 279 278 281
236 233 231 230 228 227 227 226 224 221 219 215 211 209 208 212 219 224 224 223 230 243 254 263 275 288 300 308 315 322 328 334 336 334 335 336 336 337 339 339 337 332 327 323 321 320 319 321 323 323 320 318 314 312 311 313 315 314 311 309 308 309 308 304 300 294 290 287 287 287 287 285 283 281 281 281 284 286 287 287 285 281 277 275 278
239 239 238 236 233 231 230 227 224 221 220 216 213 212 212 217 222 221 216 218 229 242 249 259 273 289 301 309 315 320 324 329 330 330 332 333 333 335 336 337 336 332 327 325 325 323 320 320 323 322 319 317 314 311 309 309 312 313 311 308 306 306 307 306 304 301 297 292 289 287 286 284 282 281 280 282 285 287 288 288 287 284 279 276 276
242 241 241 242 242 240 237 232 226 224 223 219 218 218 218 217 217 214 213 219 229 236 243 257 275 291 300 307 312 316 321 326 326 326 329 329 330 331 332 333 335 334 332 329 327 325 323 323 323 321 317 315 312 310 308 308 310 310 309 308 305 304 304 305 304 303 300 297 294 290 287 284 282 281 281 283 285 288 289 290 289 286 283 279 277
248 246 243 243 244 246 245 241 233 230 228 225 225 223 219 216 213 212 214 219 225 230 243 264 282 294 300 304 310 315 319 321 321 322 323 324 325 326 327 331 335 337 335 330 326 323 324 326 325 319 314 312 310 308 308 308 308 308 307 305 304 304 304 304 305 304 303 301 296 291 287 284 282 281 282 284 287 290 292 292 291 288 286 283 279
254 256 252 247 244 244 246 247 243 238 234 233 229 221 215 215 216 217 216 215 220 231 251 272 287 293 297 303 309 313 316 317 317 317 317 318 319 320 327 334 335 333 332 330 326 323 321 324 324 319 314 311 308 306 305 306 306 305 303 302 303 304 304 305 307 307 306 303 298 292 286 282 281 281 282 284 287 292 295 294 292 290 287 285 281
257 263 265 256 246 242 244 247 248 245 241 237 230 218 213 216 221 221 217 213 221 240 259 273 283 287 293 301 307 310 314 316 316 316 315 314 315 318 327 332 331 329 330 329 326 323 321 322 322 319 315 312 308 305 304 304 303 301 301 302 304 304 304 306 308 309 310 307 303 297 288 281 279 279 280 283 287 292 294 292 291 290 288 285 282
256 262 267 262 253 246 244 245 248 249 246 241 232 222 217 219 223 223 218 218 231 248 259 269 277 283 290 297 302 307 313 317 318 318 314 312 316 320 322 324 327 330 331 329 326 324 322 320 318 315 312 310 310 307 305 303 301 301 302 302 304 303 304 306 309 310 310 307 304 302 294 287 283 280 281 285 289 291 290 288 289 289 287 285 281
255 259 261 261 259 254 247 245 247 249 249 246 238 228 222 221 223 221 220 227 241 249 255 263 272 280 287 293 298 305 313 318 320 318 313 313 320 324 320 321 328 330 329 327 325 323 321 318 315 313 311 311 311 309 306 305 304 305 304 303 303 303 303 306 308 307 306 302 299 302 300 295 292 288 286 288 289 288 286 286 288 288 286 284 281
254 256 258 260 261 258 252 248 248 249 251 249 244 236 227 223 223 221 223 233 244 249 254 261 270 280 287 292 299 307 314 318 319 315 312 315 319 318 317 322 327 327 326 327 325 324 322 319 315 313 311 312 312 310 308 307 307 306 304 303 305 303 302 304 305 304 302 299 295 296 298 296 294 291 288 288 287 286 286 286 287 287 285 284 283
250 252 255 258 259 257 255 253 250 250 250 250 248 242 234 227 224 222 226 236 245 249 255 263 273 282 288 294 302 309 312 313 313 311 312 313 313 314 317 320 323 325 326 326 326 325 323 320 316 314 314 316 315 311 309 308 306 304 303 303 305 304 303 304 304 304 305 301 296 295 296 295 294 292 289 287 287 288 289 289 289 289 287 287 287
248 249 251 254 255 254 255 255 253 251 251 250 249 245 238 231 226 225 230 238 245 250 258 268 278 285 291 299 305 308 309 310 309 310 310 308 307 312 316 317 321 326 326 325 326 325 323 321 318 317 318 318 316 314 311 307 303 301 300 300 301 303 304 304 303 306 307 304 299 297 296 295 293 291 289 289 290 291 292 292 292 291 290 289 289
248 247 248 251 254 254 254 255 255 254 253 251 249 245 240 234 230 230 234 241 247 254 264 273 281 287 294 302 305 306 309 310 310 310 310 306 304 307 309 312 318 323 322 322 324 323 322 321 319 319 320 318 316 314 311 308 304 301 299 298 298 301 302 302 303 306 305 301 299 297 295 293 292 292 292 293 293 294 294 294 293 292 291 290 290
248 248 248 250 253 253 252 252 254 256 256 253 249 244 239 236 235 236 239 245 251 259 268 275 283 290 297 302 304 305 307 310 310 309 308 305 303 302 303 306 313 316 317 319 319 319 319 319 318 319 319 317 315 312 311 309 307 302 298 297 299 302 303 304 306 306 302 298 296 295 293 292 292 293 295 295 295 295 295 294 293 292 291 292 292
246 247 248 249 250 251 250 250 253 256 257 254 248 242 237 237 239 241 244 249 257 263 270 279 287 294 299 301 302 304 306 308 307 306 305 302 300 299 302 306 310 312 314 315 315 315 316 316 317 318 316 315 313 312 311 310 305 300 296 297 301 304 306 307 307 304 300 297 294 293 292 293 294 295 296 296 296 295 294 293 293 293 294 295 295
247 245 247 248 248 249 249 249 251 254 256 254 247 240 237 239 241 244 247 253 259 264 272 281 288 295 298 299 302 306 307 306 305 304 304 302 300 302 306 309 310 311 312 313 312 313 313 314 315 315 314 313 312 310 310 307 302 297 295 296 300 303 306 308 306 302 299 296 294 293 295 296 296 297 297 297 296 295 295 295 296 297 297 297 297
250 247 246 247 248 248 248 247 248 252 254 252 245 239 238 240 243 247 251 255 261 267 273 280 287 293 297 300 305 307 305 304 304 305 305 304 306 308 310 311 311 311 312 311 310 311 312 313 313 312 312 311 310 309 307 305 301 297 295 296 299 302 306 307 305 301 298 295 293 295 297 298 298 298 298 298 297 297 298 299 299 299 299 298 296
249 248 247 248 248 248 247 246 246 249 250 246 241 239 240 242 246 250 254 257 263 269 272 277 285 292 297 303 307 306 303 302 302 303 304 306 308 311 311 311 311 311 311 309 309 309 310 311 311 311 310 309 308 306 305 303 300 297 296 296 298 302 306 305 300 298 296 295 296 297 298 298 299 299 299 299 299 300 301 301 301 300 299 297 294
246 247 247 248 250 249 247 244 243 243 243 240 238 239 241 244 248 252 254 259 264 267 269 276 286 292 297 303 304 303 303 302 300 300 302 304 307 309 310 311 311 311 310 308 308 308 309 310 309 309 308 307 306 304 303 301 299 297 296 296 298 303 305 301 298 298 298 298 299 299 299 299 300 300 300 300 301 302 302 302 301 299 297 294 291
243 244 245 247 249 249 247 243 240 239 238 235 236 240 243 246 249 252 254 258 262 264 267 275 285 291 295 298 300 301 302 301 298 298 300 302 304 306 307 309 311 311 309 308 308 308 308 308 307 306 305 305 304 303 301 299 298 297 296 296 299 303 304 300 299 299 299 299 299 299 299 300 300 301 301 302 302 302 301 300 298 296 294 292 290
244 241 241 242 245 247 247 243 238 235 234 232 234 239 243 246 249 251 254 258 261 263 268 275 282 288 293 295 296 298 299 298 297 297 298 300 302 304 306 308 309 309 308 307 307 307 306 305 304 303 304 304 303 302 301 299 297 296 296 298 302 304 303 301 300 300 300 300 300 300 301 301 302 303 303 303 303 301 300 298 296 295 294 293 292
246 242 240 239 243 247 247 243 237 233 231 231 232 237 242 245 248 251 254 258 261 265 271 275 278 283 289 292 294 295 296 297 298 297 298 299 301 304 306 307 307 307 307 306 305 304 303 302 302 302 303 304 304 303 300 297 295 295 297 301 303 303 302 302 302 302 302 301 301 301 302 302 303 304 304 303 302 300 298 297 295 294 294 294 294
249 247 246 246 249 250 246 239 235 231 230 229 230 235 240 244 248 251 254 257 261 265 270 274 277 281 286 288 290 291 293 295 296 297 299 302 304 305 305 306 306 305 305 303 302 301 301 301 302 303 304 304 303 302 299 297 295 296 299 302 303 303 303 303 303 302 302 302 302 303 303 304 304 304 304 303 301 300 299 298 297 297 296 296 297
253 253 251 251 253 250 240 233 232 230 228 229 230 234 239 243 247 250 253 257 261 264 269 273 277 280 283 285 286 288 290 292 294 296 300 304 307 306 305 305 305 303 301 300 299 300 300 301 303 304 304 304 303 302 301 301 300 301 301 303 303 304 304 304 303 303 304 305 305 305 305 305 305 305 304 303 302 302 301 300 300 299 299 298 298
257 257 255 254 253 246 233 225 227 228 227 228 231 234 238 243 247 250 253 257 261 264 268 272 276 279 281 283 285 286 288 291 293 296 299 303 306 306 304 303 302 299 298 298 299 300 301 302 303 304 304 304 305 306 306 306 305 304 304 305 305 306 305 306 307 307 308 307 306 305 305 305 305 305 305 304 304 303 303 302 301 300 299 299 298
258 258 257 255 250 241 227 220 222 224 224 226 230 234 238 243 246 250 254 258 262 265 268 271 274 278 280 283 285 286 287 290 293 295 298 302 304 304 303 300 299 298 298 299 300 301 302 302 303 304 305 307 308 309 309 308 307 306 305 306 307 307 308 309 309 308 307 306 304 304 305 305 305 306 306 305 305 304 303 302 301 300 300 299 298
262 262 262 259 248 235 226 220 219 219 221 224 228 232 235 239 244 248 254 259 263 266 270 273 275 277 280 283 285 286 288 291 293 295 298 300 302 302 300 299 298 298 299 300 301 301 301 302 303 305 308 309 310 310 310 309 307 305 306 307 309 310 311 310 308 305 303 302 303 305 306 307 308 309 308 307 305 304 303 302 301 300 300 299 299
263 263 267 264 247 232 226 221 217 215 217 221 225 229 232 237 243 248 253 258 261 264 268 271 273 275 278 280 283 285 289 292 294 295 298 300 300 299 297 297 297 298 299 300 300 300 301 303 304 307 309 310 310 310 309 308 306 306 308 310 311 311 310 307 304 302 302 304 307 310 311 312 312 312 311 309 308 306 305 304 304 304 304 303 302
262 264 266 259 240 225 218 214 211 210 214 219 224 227 232 237 243 248 253 257 259 262 265 267 270 272 275 277 281 285 288 291 293 296 298 299 298 296 295 296 297 298 298 298 299 299 301 303 306 308 310 310 310 310 309 307 307 309 310 311 311 309 306 304 303 303 306 310 313 315 315 316 316 315 315 314 313 312 312 312 312 312 311 309 306
261 262 254 235 216 206 203 202 204 207 212 219 224 228 233 238 243 247 252 254 256 258 260 263 267 270 273 277 282 285 286 289 292 295 297 297 295 293 294 295 296 296 296 297 298 300 302 305 308 310 310 310 310 310 309 309 309 310 311 310 308 305 303 303 304 306 310 315 317 318 319 319 319 320 320 320 320 319 318 318 318 317 315 313 311
252 237 208 192 191 194 198 202 206 211 217 222 228 232 235 238 241 245 248 250 254 257 259 262 266 269 273 278 282 284 285 287 290 293 295 293 291 291 292 293 294 295 296 297 299 301 304 308 309 309 309 310 311 311 310 309 309 309 310 308 305 303 303 305 306 309 313 317 319 320 321 323 324 326 327 326 325 323 322 321 319 317 316 315 314
206 191 185 188 194 199 205 211 216 220 224 227 231 235 238 239 240 242 244 248 253 258 260 262 265 269 273 279 282 282 282 285 290 293 292 289 288 289 291 292 293 295 296 298 301 303 306 308 308 309 310 311 311 310 308 307 307 308 307 305 303 303 304 305 307 310 314 319 322 323 325 327 329 331 332 331 329 326 323 320 319 317 316 316 314
185 190 197 204 208 213 218 223 225 228 230 231 233 237 240 242 242 243 247 250 254 258 260 263 266 271 275 278 280 281 283 286 290 290 286 285 287 289 290 292 294 296 297 299 301 304 306 307 308 309 311 311 310 308 306 306 306 307 305 304 303 303 303 304 307 311 316 321 325 326 328 330 332 334 335 334 331 327 323 320 318 317 316 314 312
215 219 218 219 222 225 226 227 230 232 234 236 238 242 245 246 246 249 253 256 258 260 260 262 266 271 274 276 279 282 285 287 286 284 283 284 287 289 290 293 295 296 297 299 301 304 306 308 309 310 311 310 309 307 306 306 306 306 305 304 303 301 301 304 308 313 318 323 326 328 330 332 334 336 336 335 332 328 324 321 319 318 316 314 311
235 235 233 231 230 228 228 231 233 235 237 240 244 246 248 250 252 255 259 262 263 263 262 263 269 275 278 281 283 285 285 283 281 280 282 286 288 289 291 292 293 294 295 298 301 305 307 308 309 310 311 309 308 307 306 306 306 306 305 304 301 299 301 305 310 315 319 323 326 328 330 332 334 336 336 336 333 330 327 325 322 319 317 314 312
242 238 238 237 234 234 236 237 236 238 241 245 248 251 252 254 255 258 261 264 265 266 267 270 275 279 283 284 283 282 280 278 278 281 284 286 287 288 289 290 291 292 294 298 303 305 306 308 309 310 310 309 307 307 307 306 305 304 304 302 299 298 301 306 312 316 320 323 326 328 330 332 334 335 336 336 335 333 331 329 326 322 319 316 313
242 241 242 240 238 240 241 240 240 242 245 247 251 253 255 255 255 256 259 262 265 268 270 272 275 279 282 281 279 277 276 277 279 282 283 284 285 287 288 289 290 291 295 300 303 305 306 307 309 311 310 308 306 306 306 304 302 303 302 299 296 297 302 308 313 317 321 324 327 329 331 333 333 334 335 335 335 335 334 332 329 325 321 318 315
244 246 245 243 243 244 243 244 245 246 247 250 252 253 254 256 258 259 261 263 265 268 270 271 273 277 278 275 273 273 275 277 279 280 282 283 284 286 287 287 289 292 297 301 303 303 305 307 310 311 310 306 304 304 303 301 300 301 300 296 293 295 301 307 313 317 321 323 326 329 331 332 333 334 334 334 334 335 336 335 332 329 325 322 318
244 246 245 244 244 244 245 247 250 251 253 255 256 256 257 260 262 264 265 267 268 269 270 270 271 272 270 269 270 273 274 276 278 279 281 282 284 284 284 286 290 295 300 301 301 302 304 307 310 310 306 302 300 301 301 300 300 299 296 291 291 294 300 306 311 315 319 322 325 328 330 331 331 332 332 333 334 335 336 337 336 333 332 330 327
246 247 247 246 246 247 248 249 250 252 256 259 260 260 261 263 265 267 268 268 267 265 264 264 264 264 264 267 270 271 273 275 277 279 280 281 282 282 284 288 294 298 299 299 299 301 305 308 308 306 302 299 298 299 299 299 297 294 289 287 289 293 298 304 310 315 319 322 325 327 328 329 330 330 331 332 333 334 336 338 338 337 337 338 338
248 249 249 250 251 253 254 254 255 257 261 264 265 264 264 265 266 267 266 264 261 257 254 255 257 260 263 266 268 270 273 275 277 278 279 280 280 282 286 291 296 298 297 297 298 301 304 306 304 302 300 298 297 297 298 296 293 287 283 284 288 293 299 305 310 315 319 322 323 325 326 327 328 328 329 331 332 333 336 338 339 338 339 341 344
255 257 257 258 260 261 263 263 264 266 269 271 271 271 269 266 263 262 261 260 257 255 253 255 257 260 262 265 267 270 273 275 276 277 277 278 280 284 290 294 297 296 295 295 298 301 303 303 302 300 298 297 296 296 295 291 286 282 279 282 288 293 298 305 310 314 317 320 322 323 324 325 326 327 328 329 331 333 335 338 339 340 339 340 343
259 260 261 262 264 264 265 266 268 270 273 274 273 271 268 263 260 258 258 257 256 257 258 258 259 261 264 266 268 270 272 273 274 275 276 278 282 287 292 294 294 293 293 295 297 300 301 300 299 298 296 294 294 293 290 285 281 279 278 281 286 291 297 303 308 311 314 317 320 321 322 323 325 326 327 328 330 332 334 337 339 340 340 339 339
261 262 263 264 265 265 265 265 266 267 268 266 260 255 258 260 258 256 257 259 260 261 262 263 264 265 267 268 269 270 271 272 272 273 276 281 285 288 291 292 291 291 292 294 296 297 298 297 295 293 291 290 289 287 284 280 278 278 278 280 285 290 296 301 305 309 312 315 317 319 320 322 324 325 326 327 329 332 334 336 338 340 340 339 338
264 264 265 265 266 266 265 264 262 258 255 249 242 242 251 258 256 254 259 263 265 265 266 265 265 266 266 267 268 268 269 270 271 273 276 280 283 286 288 288 288 288 290 292 294 294 294 292 289 287 286 285 285 282 279 277 275 276 277 280 284 289 294 298 302 306 310 313 316 318 320 322 324 325 326 327 329 331 333 334 336 338 340 340 339
265 264 264 263 263 263 263 261 255 248 244 243 242 239 238 244 253 263 268 267 265 265 265 264 264 265 265 266 266 267 268 270 271 273 276 278 281 283 284 284 284 286 287 289 290 290 288 285 283 282 282 281 279 277 275 274 274 274 276 280 284 287 291 296 301 305 309 311 314 316 319 321 324 325 326 327 329 330 331 333 335 336 339 340 340
264 263 261 258 256 256 256 256 251 245 243 245 246 244 241 245 256 266 269 266 265 265 264 264 264 265 265 266 266 267 269 270 272 274 276 278 280 282 282 282 283 284 285 286 285 283 281 279 278 277 277 275 273 272 272 272 273 274 277 279 283 286 289 294 299 303 305 307 310 313 316 318 321 323 325 327 328 329 330 332 333 335 336 338 339
258 258 256 253 250 249 248 247 246 244 242 241 243 247 252 257 262 265 266 266 265 263 262 263 265 265 265 265 266 267 268 269 271 274 276 278 279 281 281 280 280 281 281 281 278 276 274 273 272 271 271 269 269 270 271 272 273 275 277 279 281 284 288 292 295 298 300 302 305 309 311 313 316 319 321 324 326 328 329 330 331 333 334 335 336
Height
5898 5899 5899 5899 5900 5901 5901 5902 5902 5903 5903 5904 5904 5904 5905 5906 5907 5907 5908 5909 5910 5911 5911 5911 5911 5911 5910 5909 5907 5907 5906 5906 5905 5904 5903 5903 5901 5900 5898 5897 5896 5894 5893 5891 5890 5888 5886 5885 5883 5882 5881 5880 5879 5877 5876 5874 5873 5872 5871 5870 5869 5869 5868 5867 5866 5865 5864 5864 5863 5863 5863 5862 5862 5861 5860 5859 5858 5857 5856 5855 5854 5853 5852 5851 5849
5896 5896 5896 5897 5897 5898 5898 5899 5900 5900 5901 5901 5902 5902 5903 5904 5905 5905 5906 5907 5908 5909 5909 5909 5909 5909 5908 5907 5905 5904 5904 5904 5903 5902 5901 5900 5899 5898 5896 5895 5893 5892 5890 5889 5888 5886 5884 5882 5881 5880 5878 5877 5876 5875 5874 5873 5871 5870 5869 5868 5866 5865 5865 5864 5863 5861 5860 5859 5859 5858 5858 5858 5857 5856 5855 5854 5853 5852 5851 5849 5848 5847 5846 5845 5844
5894 5894 5895 5895 5895 5896 5896 5897 5897 5898 5898 5899 5900 5900 5901 5902 5903 5904 5904 5905 5906 5906 5907 5907 5906 5906 5905 5904 5903 5902 5902 5902 5901 5900 5898 5897 5896 5895 5894 5892 5891 5889 5887 5886 5884 5883 5881 5879 5878 5877 5875 5874 5873 5873 5872 5871 5869 5867 5866 5865 5863 5862 5861 5860 5859 5859 5857 5856 5855 5854 5854 5853 5852 5851 5850 5849 5848 5847 5846 5844 5843 5842 5841 5840 5839
5893 5893 5893 5893 5893 5894 5894 5894 5895 5895 5896 5896 5897 5898 5899 5900 5900 5901 5902 5903 5904 5904 5904 5904 5904 5903 5902 5901 5901 5900 5900 5900 5899 5897 5896 5895 5893 5892 5891 5890 5888 5886 5885 5883 5881 5879 5877 5876 5875 5873 5872 5871 5870 5869 5869 5868 5867 5865 5864 5862 5861 5859 5858 5857 5856 5855 5854 5853 5851 5850 5849 5848 5847 5846 5845 5844 5843 5842 5841 5839 5838 5837 5836 5835 5834
5891 5892 5892 5891 5892 5892 5892 5892 5893 5893 5894 5894 5895 5896 5897 5897 5898 5899 5900 5901 5901 5902 5902 5902 5901 5901 5900 5899 5898 5898 5897 5897 5896 5895 5894 5892 5891 5889 5888 5887 5885 5883 5881 5879 5877 5875 5874 5873 5871 5870 5868 5867 5866 5866 5865 5864 5863 5862 5861 5860 5858 5857 5855 5854 5853 5852 5850 5849 5848 5846 5845 5843 5842 5841 5840 5839 5838 5837 5836 5835 5833 5832 5831 5830 5829
5889 5890 5890 5890 5890 5890 5890 5890 5891 5891 5891 5892 5893 5894 5895 5895 5896 5897 5898 5898 5899 5899 5899 5899 5899 5899 5898 5897 5896 5895 5895 5894 5893 5892 5891 5890 5888 5886 5885 5884 5882 5880 5877 5876 5875 5873 5871 5870 5868 5867 5865 5863 5863 5862 5862 5861 5860 5859 5857 5855 5854 5853 5852 5850 5849 5848 5847 5845 5844 5843 5841 5839 5838 5837 5835 5834 5833 5832 5831 5830 5829 5827 5826 5824 5823
5887 5888 5888 5888 5888 5888 5888 5888 5888 5889 5889 5890 5891 5891 5892 5893 5894 5895 5895 5896 5897 5897 5897 5897 5897 5896 5896 5895 5894 5893 5893 5892 5890 5889 5888 5886 5885 5883 5882 5881 5879 5877 5875 5873 5872 5870 5869 5867 5865 5863 5862 5860 5859 5858 5858 5856 5855 5854 5852 5850 5849 5848 5847 5846 5845 5844 5842 5841 5840 5838 5837 5835 5834 5832 5830 5829 5828 5827 5826 5825 5824 5822 5821 5820 5818
5885 5886 5886 5886 5886 5886 5886 5886 5886 5887 5887 5887 5888 5889 5890 5891 5891 5892 5893 5894 5894 5894 5895 5894 5894 5894 5893 5892 5891 5891 5890 5889 5888 5886 5884 5883 5882 5880 5879 5879 5877 5875 5873 5871 5869 5867 5866 5865 5863 5861 5859 5858 5856 5855 5853 5852 5850 5849 5847 5845 5844 5843 5842 5841 5840 5839 5838 5837 5835 5833 5832 5831 5829 5827 5826 5824 5823 5822 5821 5820 5819 5817 5815 5814 5813
5882 5883 5884 5884 5884 5885 5884 5884 5884 5884 5885 5885 5886 5887 5887 5888 5888 5889 5890 5891 5892 5892 5892 5892 5891 5891 5890 5889 5889 5889 5888 5887 5885 5883 5881 5879 5878 5878 5878 5877 5875 5873 5871 5869 5867 5865 5863 5862 5860 5858 5857 5855 5854 5852 5850 5848 5847 5845 5843 5841 5840 5839 5838 5837 5836 5835 5834 5832 5830 5828 5826 5825 5824 5822 5821 5819 5818 5816 5815 5813 5812 5811 5810 5808 5806
5879 5880 5882 5882 5882 5882 5882 5882 5882 5882 5883 5883 5884 5884 5884 5885 5885 5886 5887 5888 5889 5889 5889 5889 5889 5888 5887 5886 5886 5886 5885 5884 5883 5880 5877 5874 5874 5875 5876 5874 5872 5870 5868 5866 5864 5862 5860 5859 5857 5856 5854 5853 5851 5849 5847 5845 5843 5841 5839 5837 5835 5834 5833 5833 5832 5830 5828 5827 5824 5822 5820 5819 5817 5817 5816 5815 5813 5811 5809 5807 5806 5805 5804 5803 5801
5876 5878 5879 5880 5879 5879 5879 5879 5880 5880 5880 5881 5881 5881 5881 5882 5883 5883 5884 5885 5886 5886 5887 5886 5886 5885 5884 5884 5884 5883 5883 5882 5880 5877 5873 5869 5870 5872 5872 5870 5868 5867 5865 5863 5861 5859 5857 5855 5854 5852 5851 5850 5848 5846 5843 5841 5839 5837 5835 5833 5831 5829 5828 5827 5826 5823 5822 5821 5819 5816 5814 5813 5812 5811 5810 5809 5808 5805 5803 5802 5801 5799 5797 5796 5794
5874 5875 5876 5876 5876 5876 5877 5876 5877 5877 5878 5878 5878 5878 5878 5879 5880 5881 5882 5882 5883 5883 5884 5884 5883 5883 5882 5882 5881 5881 5881 5880 5878 5874 5868 5866 5869 5870 5867 5865 5865 5864 5862 5860 5858 5856 5853 5851 5850 5848 5847 5845 5844 5842 5839 5837 5835 5833 5831 5829 5826 5824 5823 5822 5820 5818 5816 5816 5815 5813 5810 5809 5808 5806 5805 5804 5802 5800 5798 5796 5795 5793 5791 5789 5787
5871 5872 5873 5873 5873 5874 5874 5874 5874 5875 5875 5875 5875 5875 5875 5876 5877 5878 5879 5879 5879 5880 5881 5881 5880 5880 5879 5879 5879 5879 5879 5877 5875 5871 5866 5864 5866 5865 5862 5862 5862 5860 5858 5856 5854 5852 5850 5848 5846 5844 5842 5841 5839 5837 5835 5833 5831 5829 5826 5824 5822 5820 5819 5818 5815 5813 5812 5811 5810 5809 5806 5805 5804 5802 5800 5798 5796 5794 5792 5791 5788 5786 5784 5781 5779
5868 5869 5869 5870 5871 5871 5870 5870 5871 5872 5872 5872 5872 5872 5873 5874 5874 5875 5876 5876 5877 5877 5877 5877 5877 5877 5876 5876 5876 5877 5876 5874 5872 5869 5865 5862 5860 5858 5859 5859 5858 5856 5853 5851 5849 5847 5845 5843 5842 5840 5838 5837 5835 5833 5830 5828 5826 5824 5821 5819 5817 5816 5815 5813 5810 5809 5808 5806 5805 5804 5802 5800 5798 5796 5794 5792 5790 5787 5785 5783 5780 5778 5776 5773 5771
5865 5866 5866 5866 5867 5867 5867 5867 5868 5868 5868 5868 5868 5869 5870 5871 5871 5872 5872 5873 5873 5874 5874 5874 5874 5874 5873 5873 5873 5873 5872 5870 5868 5866 5864 5861 5857 5854 5853 5852 5851 5850 5848 5846 5844 5843 5841 5839 5837 5835 5833 5832 5830 5828 5825 5823 5821 5819 5816 5814 5813 5811 5809 5808 5806 5804 5803 5802 5800 5799 5797 5794 5792 5790 5787 5784 5782 5780 5777 5775 5773 5770 5768 5766 5764
5860 5862 5863 5863 5863 5864 5864 5864 5864 5864 5864 5864 5865 5866 5866 5867 5868 5868 5869 5869 5870 5870 5870 5870 5870 5870 5870 5870 5869 5869 5868 5866 5865 5863 5861 5859 5855 5851 5848 5845 5845 5844 5842 5841 5840 5838 5836 5835 5833 5831 5829 5827 5824 5822 5820 5818 5815 5813 5811 5809 5807 5806 5805 5802 5801 5799 5798 5796 5795 5793 5791 5788 5785 5783 5780 5777 5774 5772 5770 5768 5766 5762 5760 5759 5757
5855 5857 5859 5860 5860 5860 5861 5861 5860 5860 5861 5861 5862 5862 5863 5864 5864 5865 5865 5865 5866 5866 5866 5866 5866 5866 5866 5866 5865 5864 5863 5862 5861 5859 5858 5856 5853 5850 5846 5844 5842 5841 5838 5837 5836 5835 5833 5831 5828 5826 5824 5822 5819 5817 5814 5812 5810 5808 5805 5804 5802 5801 5799 5796 5795 5793 5792 5790 5788 5786 5784 5782 5779 5776 5773 5770 5767 5765 5763 5761 5758 5755 5753 5751 5749
5850 5852 5854 5855 5856 5856 5857 5857 5857 5857 5857 5857 5858 5859 5860 5860 5861 5861 5861 5861 5862 5862 5862 5862 5862 5862 5862 5861 5860 5859 5858 5857 5856 5855 5853 5851 5848 5846 5844 5842 5840 5838 5836 5834 5833 5831 5829 5827 5824 5822 5819 5817 5814 5811 5809 5807 5805 5803 5801 5799 5798 5796 5793 5791 5789 5787 5786 5784 5782 5780 5777 5775 5772 5769 5767 5764 5761 5759 5757 5755 5752 5748 5746 5743 5741
5844 5847 5849 5850 5851 5852 5853 5853 5853 5853 5853 5853 5854 5855 5856 5857 5857 5857 5857 5857 5857 5858 5858 5858 5859 5858 5858 5857 5855 5855 5854 5853 5851 5849 5848 5845 5843 5842 5840 5838 5836 5835 5833 5831 5829 5827 5825 5822 5820 5818 5815 5812 5809 5806 5804 5802 5800 5798 5796 5795 5793 5791 5788 5785 5784 5782 5780 5778 5775 5773 5771 5768 5765 5763 5760 5757 5754 5752 5750 5747 5744 5741 5738 5735 5733
5838 5840 5842 5843 5845 5846 5848 5849 5849 5849 5849 5849 5850 5851 5852 5852 5852 5852 5853 5853 5853 5853 5854 5854 5854 5854 5853 5852 5851 5850 5849 5848 5846 5844 5842 5840 5838 5837 5836 5834 5832 5831 5830 5828 5825 5823 5820 5818 5815 5813 5810 5807 5804 5801 5799 5797 5796 5794 5792 5790 5788 5786 5783 5780 5778 5777 5775 5772 5770 5767 5764 5761 5758 5756 5753 5750 5747 5744 5742 5739 5736 5733 5730 5728 5725
5832 5832 5834 5836 5839 5840 5843 5844 5845 5845 5845 5845 5845 5846 5847 5847 5847 5847 5848 5848 5849 5849 5849 5849 5849 5849 5848 5847 5847 5846 5845 5843 5841 5839 5837 5836 5834 5833 5832 5830 5828 5827 5825 5823 5821 5818 5816 5813 5811 5808 5805 5803 5800 5797 5795 5793 5791 5789 5787 5785 5783 5780 5777 5775 5773 5771 5769 5766 5763 5760 5757 5754 5752 5749 5746 5743 5740 5737 5734 5731 5729 5726 5724 5721 5719
5825 5826 5828 5830 5832 5834 5836 5838 5840 5841 5841 5840 5840 5841 5841 5841 5842 5842 5843 5843 5844 5844 5844 5845 5845 5844 5843 5843 5843 5841 5839 5838 5836 5834 5833 5831 5830 5829 5827 5826 5825 5823 5821 5818 5816 5813 5811 5808 5806 5803 5801 5798 5795 5793 5790 5788 5786 5784 5781 5779 5777 5774 5772 5770 5767 5765 5762 5759 5756 5753 5750 5747 5745 5742 5739 5736 5733 5730 5727 5724 5722 5719 5717 5715 5713
5819 5821 5822 5823 5825 5827 5830 5832 5834 5835 5836 5836 5835 5835 5835 5836 5836 5837 5838 5839 5839 5839 5840 5840 5840 5839 5839 5838 5837 5836 5834 5833 5831 5830 5828 5827 5825 5824 5823 5822 5820 5818 5816 5813 5811 5808 5806 5804 5802 5799 5796 5794 5791 5788 5786 5783 5781 5778 5776 5774 5772 5769 5766 5763 5761 5758 5755 5752 5750 5747 5744 5741 5738 5736 5733 5730 5727 5724 5721 5718 5715 5713 5711 5709 5708
5812 5814 5815 5817 5818 5821 5823 5825 5827 5829 5831 5831 5830 5829 5830 5830 5831 5832 5833 5834 5834 5835 5836 5835 5834 5834 5834 5833 5832 5831 5830 5829 5827 5826 5824 5822 5821 5820 5819 5817 5815 5813 5811 5808 5806 5804 5802 5800 5797 5794 5792 5789 5786 5783 5781 5778 5776 5773 5771 5769 5766 5763 5760 5757 5755 5752 5749 5746 5743 5740 5737 5735 5732 5730 5727 5724 5721 5718 5715 5712 5710 5708 5706 5704 5702
5805 5806 5807 5809 5811 5813 5816 5818 5820 5822 5824 5824 5824 5823 5824 5824 5826 5828 5829 5829 5830 5831 5831 5830 5829 5829 5828 5827 5826 5826 5825 5824 5822 5821 5819 5818 5816 5815 5814 5812 5810 5808 5805 5803 5801 5799 5797 5795 5792 5789 5786 5784 5781 5778 5775 5773 5771 5768 5766 5763 5760 5757 5754 5752 5749 5746 5743 5740 5738 5735 5732 5729 5726 5724 5721 5718 5715 5713 5710 5708 5705 5703 5700 5698 5696
5796 5798 5799 5800 5802 5805 5808 5810 5812 5814 5815 5816 5817 5817 5818 5820 5822 5823 5823 5824 5825 5825 5825 5824 5824 5824 5823 5822 5821 5821 5820 5819 5817 5815 5814 5812 5811 5810 5808 5806 5804 5802 5800 5798 5796 5794 5792 5789 5786 5784 5781 5778 5775 5773 5770 5768 5766 5763 5760 5757 5754 5752 5749 5746 5743 5741 5738 5735 5732 5729 5726 5723 5721 5718 5715 5712 5710 5707 5705 5703 5700 5697 5695 5693 5690
5787 5788 5790 5790 5791 5794 5798 5801 5803 5805 5807 5808 5809 5810 5812 5815 5817 5817 5818 5819 5820 5820 5819 5818 5818 5818 5817 5817 5816 5815 5814 5813 5812 5810 5808 5807 5806 5804 5802 5800 5798 5796 5795 5793 5791 5789 5786 5783 5781 5778 5775 5772 5770 5767 5765 5762 5760 5757 5754 5751 5749 5746 5744 5741 5738 5735 5733 5730 5727 5723 5721 5718 5716 5713 5710 5707 5705 5702 5700 5697 5694 5692 5689 5687 5685
5778 5778 5779 5778 5778 5781 5785 5788 5792 5796 5798 5800 5801 5804 5807 5809 5811 5812 5813 5814 5814 5814 5813 5813 5813 5813 5812 5811 5810 5809 5808 5807 5806 5804 5803 5802 5800 5798 5796 5795 5793 5791 5790 5788 5786 5783 5780 5777 5775 5772 5770 5767 5764 5762 5759 5756 5754 5751 5748 5746 5744 5741 5739 5736 5733 5730 5727 5724 5721 5718 5716 5713 5711 5708 5705 5703 5700 5697 5694 5692 5689 5687 5684 5682 5680
5767 5768 5767 5765 5765 5769 5773 5776 5780 5785 5790 5793 5796 5798 5801 5803 5804 5806 5807 5808 5808 5807 5806 5806 5806 5806 5806 5805 5804 5803 5802 5801 5800 5799 5797 5796 5794 5793 5791 5789 5788 5786 5784 5782 5780 5777 5775 5772 5769 5767 5764 5761 5759 5756 5753 5751 5748 5745 5743 5741 5739 5736 5734 5731 5727 5724 5722 5720 5717 5715 5712 5709 5707 5704 5701 5698 5695 5693 5690 5687 5685 5682 5680 5678 5675
5757 5757 5758 5756 5758 5763 5767 5769 5772 5776 5781 5785 5788 5790 5793 5795 5797 5799 5800 5801 5802 5801 5801 5801 5801 5801 5800 5799 5798 5798 5796 5795 5794 5793 5792 5790 5789 5787 5786 5784 5782 5780 5778 5776 5774 5771 5769 5767 5764 5762 5759 5756 5754 5751 5748 5746 5743 5740 5738 5735 5733 5731 5728 5726 5723 5721 5718 5716 5714 5712 5709 5706 5703 5700 5697 5694 5691 5688 5685 5683 5680 5678 5676 5674 5671
5748 5747 5747 5748 5751 5756 5760 5762 5765 5769 5773 5776 5779 5782 5785 5788 5791 5793 5795 5795 5796 5796 5796 5796 5795 5795 5795 5794 5793 5792 5791 5790 5788 5787 5786 5785 5783 5781 5780 5778 5776 5775 5773 5770 5768 5766 5764 5762 5759 5757 5754 5751 5749 5746 5744 5742 5739 5736 5733 5730 5728 5726 5724 5722 5720 5717 5715 5713 5711 5708 5705 5702 5699 5696 5693 5690 5687 5684 5681 5679 5676 5674 5672 5670 5668
5738 5737 5736 5737 5742 5748 5752 5755 5757 5760 5764 5769 5772 5776 5779 5783 5785 5787 5789 5790 5790 5790 5790 5790 5789 5789 5788 5788 5787 5786 5785 5784 5783 5782 5781 5779 5777 5775 5774 5772 5771 5769 5767 5765 5763 5761 5759 5757 5754 5752 5749 5746 5744 5742 5740 5737 5734 5731 5729 5726 5724 5722 5720 5718 5716 5714 5712 5709 5707 5704 5701 5699 5696 5693 5689 5686 5683 5680 5677 5674 5672 5669 5667 5666 5664
5729 5729 5727 5728 5733 5738 5742 5745 5749 5753 5758 5763 5767 5770 5774 5776 5779 5781 5782 5783 5783 5782 5783 5783 5783 5783 5782 5782 5781 5781 5780 5778 5778 5776 5775 5773 5771 5769 5768 5766 5765 5764 5762 5760 5758 5756 5754 5751 5749 5746 5744 5742 5740 5738 5735 5732 5729 5727 5725 5723 5721 5719 5717 5715 5713 5711 5708 5706 5703 5701 5698 5695 5692 5689 5686 5683 5679 5676 5673 5671 5668 5666 5664 5663 5660
5724 5724 5721 5721 5724 5729 5733 5739 5744 5749 5754 5758 5761 5765 5767 5770 5772 5773 5774 5774 5774 5774 5775 5776 5776 5776 5776 5776 5775 5775 5774 5773 5771 5770 5769 5767 5765 5764 5763 5761 5760 5759 5757 5754 5752 5750 5748 5745 5743 5741 5739 5738 5736 5733 5730 5728 5725 5723 5721 5720 5718 5716 5714 5712 5710 5707 5705 5703 5700 5698 5695 5692 5689 5686 5683 5680 5677 5674 5671 5668 5666 5664 5662 5660 5658
5714 5716 5715 5716 5720 5726 5732 5737 5742 5746 5750 5754 5757 5760 5761 5763 5764 5765 5765 5766 5767 5768 5768 5769 5769 5769 5770 5769 5769 5768 5767 5766 5765 5763 5762 5761 5759 5758 5757 5756 5755 5753 5751 5748 5746 5745 5743 5741 5738 5737 5735 5733 5732 5729 5727 5724 5722 5720 5718 5717 5715 5713 5711 5709 5707 5705 5702 5700 5698 5695 5693 5690 5687 5684 5680 5677 5674 5671 5668 5666 5664 5662 5660 5657 5655
5710 5713 5715 5718 5723 5727 5732 5737 5740 5744 5747 5750 5752 5754 5756 5757 5758 5759 5759 5760 5761 5761 5762 5763 5763 5763 5763 5762 5762 5761 5760 5759 5758 5757 5756 5755 5754 5752 5751 5750 5748 5746 5744 5743 5741 5739 5738 5736 5734 5732 5730 5729 5727 5725 5723 5721 5719 5717 5716 5714 5712 5710 5708 5706 5704 5702 5700 5698 5695 5693 5690 5687 5684 5681 5678 5675 5672 5669 5666 5664 5662 5659 5657 5654 5652
5713 5715 5718 5722 5725 5728 5732 5735 5738 5740 5743 5745 5747 5749 5751 5752 5753 5754 5754 5755 5755 5756 5757 5757 5757 5756 5756 5755 5755 5755 5754 5753 5752 5751 5750 5749 5748 5747 5745 5743 5742 5740 5739 5737 5736 5734 5732 5730 5728 5727 5725 5724 5722 5720 5718 5716 5715 5713 5712 5710 5708 5706 5705 5703 5701 5699 5697 5695 5693 5690 5688 5685 5682 5679 5676 5673 5670 5667 5664 5662 5659 5656 5654 5651 5649
5714 5716 5719 5722 5724 5727 5730 5733 5734 5736 5739 5741 5742 5744 5745 5746 5747 5748 5749 5750 5751 5751 5751 5751 5751 5751 5750 5750 5749 5749 5748 5747 5746 5745 5744 5743 5742 5741 5739 5738 5737 5735 5734 5732 5731 5729 5727 5725 5723 5722 5721 5719 5717 5715 5713 5712 5710 5709 5708 5706 5704 5703 5701 5700 5698 5696 5694 5692 5690 5688 5685 5682 5680 5677 5674 5671 5668 5665 5662 5659 5656 5653 5651 5648 5646
5713 5715 5717 5720 5723 5725 5727 5729 5730 5732 5735 5736 5737 5738 5739 5740 5741 5742 5743 5744 5744 5745 5745 5745 5745 5745 5744 5743 5743 5743 5742 5741 5740 5739 5738 5737 5736 5735 5734 5733 5732 5731 5729 5727 5726 5724 5722 5720 5719 5718 5716 5715 5712 5711 5709 5708 5706 5705 5703 5702 5701 5699 5698 5697 5695 5693 5691 5689 5687 5685 5683 5680 5678 5675 5672 5669 5666 5663 5660 5657 5654 5651 5648 5645 5643
5711 5713 5715 5717 5719 5721 5723 5725 5726 5727 5729 5730 5731 5732 5732 5733 5734 5735 5736 5737 5737 5738 5739 5739 5738 5738 5738 5737 5737 5737 5736 5735 5734 5733 5732 5732 5731 5730 5729 5728 5727 5726 5724 5722 5721 5719 5717 5716 5714 5713 5711 5710 5708 5706 5705 5704 5702 5701 5700 5699 5698 5696 5695 5694 5692 5691 5689 5687 5685 5683 5680 5678 5676 5673 5670 5667 5665 5661 5658 5655 5651 5649 5646 5643 5640
5709 5710 5712 5714 5715 5717 5719 5720 5721 5722 5723 5723 5724 5724 5725 5727 5728 5729 5730 5730 5731 5731 5732 5732 5732 5731 5731 5731 5731 5731 5731 5730 5729 5728 5727 5726 5725 5725 5724 5723 5722 5720 5718 5717 5715 5714 5713 5711 5710 5708 5707 5705 5703 5702 5701 5700 5699 5698 5697 5696 5695 5694 5692 5691 5689 5688 5687 5685 5683 5680 5678 5676 5673 5671 5668 5666 5663 5660 5657 5653 5650 5647 5644 5641 5638
5706 5707 5708 5709 5710 5712 5713 5714 5715 5716 5717 5717 5717 5718 5719 5721 5722 5723 5723 5723 5724 5724 5724 5724 5725 5725 5725 5726 5726 5725 5725 5724 5723 5722 5722 5721 5720 5719 5719 5718 5717 5715 5713 5711 5710 5709 5708 5707 5706 5705 5703 5701 5699 5698 5697 5696 5695 5694 5693 5693 5692 5691 5690 5688 5687 5686 5684 5682 5680 5678 5676 5674 5671 5669 5667 5664 5661 5658 5655 5652 5648 5645 5642 5639 5635
5702 5703 5704 5704 5705 5706 5708 5708 5709 5710 5711 5712 5712 5712 5713 5714 5715 5715 5716 5716 5716 5716 5717 5717 5718 5719 5720 5720 5720 5720 5719 5718 5718 5717 5716 5715 5715 5714 5713 5712 5711 5710 5708 5707 5705 5704 5703 5703 5702 5701 5700 5698 5696 5694 5693 5692 5691 5691 5690 5690 5689 5688 5687 5686 5685 5683 5681 5679 5677 5675 5673 5671 5669 5667 5664 5662 5659 5657 5653 5650 5647 5644 5640 5637 5634
5698 5699 5699 5699 5700 5702 5703 5704 5704 5706 5707 5706 5706 5707 5708 5708 5708 5708 5708 5708 5707 5708 5709 5710 5711 5712 5714 5714 5714 5714 5713 5713 5712 5711 5711 5710 5709 5709 5707 5706 5705 5704 5703 5702 5701 5700 5699 5699 5698 5697 5696 5694 5693 5691 5690 5689 5688 5688 5687 5687 5686 5685 5684 5683 5682 5680 5679 5677 5675 5673 5671 5669 5667 5665 5663 5660 5658 5655 5652 5649 5646 5643 5639 5636 5633
5694 5695 5695 5696 5696 5698 5698 5699 5699 5700 5701 5701 5701 5701 5702 5702 5701 5700 5700 5701 5701 5702 5703 5705 5706 5707 5708 5708 5708 5708 5707 5706 5706 5705 5705 5704 5703 5702 5701 5700 5699 5699 5698 5697 5696 5696 5695 5694 5693 5692 5691 5690 5688 5687 5686 5686 5685 5685 5684 5684 5683 5682 5681 5680 5679 5678 5676 5675 5673 5671 5669 5667 5665 5663 5661 5658 5656 5653 5651 5648 5645 5642 5639 5636 5633
5689 5690 5690 5690 5691 5691 5692 5692 5694 5695 5696 5696 5696 5695 5695 5695 5694 5694 5694 5695 5696 5697 5699 5700 5701 5701 5701 5701 5701 5701 5701 5700 5700 5699 5699 5698 5697 5696 5695 5695 5694 5694 5693 5693 5692 5691 5691 5690 5689 5688 5686 5685 5684 5683 5683 5683 5682 5682 5681 5681 5680 5679 5678 5678 5676 5675 5674 5672 5670 5669 5667 5665 5663 5661 5659 5657 5654 5652 5649 5647 5644 5641 5638 5635 5632
5684 5684 5685 5685 5686 5686 5686 5687 5689 5689 5690 5691 5691 5690 5689 5689 5689 5689 5690 5691 5692 5693 5694 5694 5694 5694 5695 5695 5695 5695 5695 5694 5694 5693 5693 5692 5691 5691 5690 5690 5689 5689 5688 5688 5687 5686 5686 5685 5684 5683 5682 5681 5681 5680 5680 5680 5679 5679 5678 5678 5677 5676 5676 5675 5674 5673 5671 5669 5668 5666 5665 5663 5661 5659 5657 5655 5652 5650 5648 5645 5642 5640 5637 5634 5631
5678 5679 5679 5680 5680 5680 5681 5682 5683 5684 5685 5686 5685 5685 5685 5684 5684 5685 5686 5687 5687 5688 5688 5688 5688 5688 5688 5688 5688 5689 5689 5689 5688 5688 5687 5687 5686 5686 5685 5685 5685 5684 5683 5683 5682 5681 5681 5680 5680 5679 5678 5678 5677 5677 5677 5677 5677 5676 5675 5675 5674 5674 5673 5672 5671 5670 5668 5667 5665 5664 5662 5661 5659 5657 5655 5653 5651 5648 5646 5644 5641 5639 5636 5633 5631
5672 5672 5673 5674 5675 5675 5675 5676 5677 5678 5680 5681 5681 5681 5681 5680 5679 5680 5682 5683 5683 5683 5683 5683 5683 5683 5683 5683 5683 5683 5683 5683 5682 5682 5682 5682 5681 5681 5681 5681 5680 5679 5679 5678 5678 5677 5677 5676 5676 5675 5674 5674 5674 5674 5674 5673 5673 5673 5673 5672 5672 5671 5670 5669 5668 5667 5666 5664 5663 5662 5660 5659 5657 5655 5653 5651 5649 5647 5644 5642 5640 5637 5635 5632 5630
5666 5667 5667 5668 5669 5670 5670 5671 5672 5673 5675 5676 5677 5676 5676 5675 5675 5675 5676 5677 5678 5678 5677 5677 5678 5678 5678 5677 5677 5677 5677 5676 5676 5676 5676 5676 5676 5676 5676 5675 5675 5674 5674 5673 5673 5673 5673 5672 5672 5671 5671 5671 5671 5671 5671 5670 5670 5670 5669 5669 5668 5668 5667 5666 5665 5664 5663 5662 5660 5659 5658 5656 5655 5653 5651 5649 5647 5645 5643 5640 5638 5636 5634 5631 5629
5662 5663 5663 5664 5665 5665 5666 5667 5667 5668 5669 5671 5671 5671 5670 5671 5671 5672 5671 5672 5673 5673 5672 5672 5672 5672 5672 5672 5671 5671 5670 5670 5670 5670 5670 5670 5670 5670 5670 5670 5670 5669 5669 5669 5668 5668 5668 5668 5668 5667 5667 5667 5668 5668 5667 5667 5667 5667 5666 5665 5665 5664 5663 5663 5662 5661 5660 5659 5658 5657 5655 5654 5653 5651 5649 5647 5645 5643 5641 5639 5636 5634 5632 5630 5628